Location: Bern�tre
(50.1974°N, 2.0915°E)
Time: 09:33:35
(UTC+00:00)

CZ-2C R/B - Pass Details

Date: 18 September 2020
Orbit: 785 x 870 km, 98.2° (Epoch: 27 October)

Event Time Altitude Azimuth Distance (km) Brightness Sun altitude
Rises 19:16:01 0° 17° (NNE) 3,409 5.9 -13.1°
Reaches altitude 10° 19:18:27 10° 23° (NNE) 2,482 5.1 -13.5°
Maximum altitude 19:23:50 52° 99° (E) 1,059 2.8 -14.3°
Drops below altitude 10° 19:29:16 10° 176° (S) 2,503 4.9 -15.1°
Sets 19:31:44 0° 181° (S) 3,441 5.7 -15.5°
